DTA747 FNLU-SBGR

Flight info

Callsign DTA747
Flight time N/A
Altitude 34000
Route EPMOR UL340 BUTOG/N0488F360 UL340 DADOT/N0481F380 UL340 ESORU UZ10 EDMUS
Aircraft B77W/H-SDE1E2E3FGHIJ2J3J4J5M1RWXY/LB1D1

Departure

Time 2026-04-27 08:23
Airport Quatro de Fevereiro International Airport (FNLU)

Arrival

Time N/A
Airport São Paulo/Guarulhos–Governor André Franco Montoro International Airport (SBGR)
Time Latitude Longitude Altitude Speed Heading
2026-04-27 08:14 -8.84948 13.23649 264 ft 0 kts 308°
2026-04-27 08:18 -8.84945 13.23646 264 ft 2 kts 308°
2026-04-27 08:18 -8.84925 13.23621 264 ft 6 kts 308°
2026-04-27 08:18 -8.84911 13.23583 264 ft 6 kts 270°
2026-04-27 08:18 -8.84923 13.23541 264 ft 6 kts 251°
2026-04-27 08:19 -8.84952 13.23512 264 ft 6 kts 194°
2026-04-27 08:19 -8.84996 13.23519 264 ft 6 kts 162°
2026-04-27 08:19 -8.85038 13.23537 264 ft 6 kts 158°
2026-04-27 08:19 -8.85080 13.23554 263 ft 6 kts 158°
2026-04-27 08:20 -8.85121 13.23572 263 ft 6 kts 152°
2026-04-27 08:20 -8.85157 13.23599 263 ft 6 kts 138°
2026-04-27 08:20 -8.85191 13.23630 263 ft 6 kts 137°
2026-04-27 08:20 -8.85224 13.23661 263 ft 6 kts 137°
2026-04-27 08:21 -8.85257 13.23692 263 ft 6 kts 137°
2026-04-27 08:21 -8.85290 13.23722 263 ft 6 kts 137°
2026-04-27 08:21 -8.85323 13.23754 263 ft 6 kts 136°
2026-04-27 08:21 -8.85356 13.23785 263 ft 6 kts 137°
2026-04-27 08:22 -8.85392 13.23811 263 ft 6 kts 167°
2026-04-27 08:22 -8.85433 13.23791 263 ft 7 kts 223°
2026-04-27 08:22 -8.85444 13.23779 263 ft 0 kts 225°
2026-04-27 08:22 -8.85514 13.23705 264 ft 45 kts 226°
2026-04-27 08:23 -8.85899 13.23295 264 ft 114 kts 226°
2026-04-27 08:23 -8.86582 13.22564 265 ft 170 kts 227°
2026-04-27 08:23 -8.87482 13.21604 422 ft 195 kts 227°
2026-04-27 08:23 -8.88415 13.20619 988 ft 195 kts 225°
2026-04-27 08:24 -8.89330 13.19620 1568 ft 193 kts 225°
2026-04-27 08:24 -8.90090 13.18494 2001 ft 199 kts 245°
2026-04-27 08:24 -8.90610 13.17123 2170 ft 219 kts 248°
2026-04-27 08:24 -8.91180 13.15612 2392 ft 239 kts 247°
2026-04-27 08:25 -8.91586 13.14548 2590 ft 250 kts 248°
2026-04-27 08:25 -8.92450 13.12293 3146 ft 268 kts 247°
2026-04-27 08:25 -8.92914 13.11107 3613 ft 268 kts 247°
2026-04-27 08:25 -8.93608 13.09353 4331 ft 272 kts 247°
2026-04-27 08:26 -8.94557 13.06963 5125 ft 280 kts 248°
2026-04-27 08:26 -8.95053 13.05716 5518 ft 285 kts 247°
2026-04-27 08:26 -8.96049 13.03226 6335 ft 292 kts 247°
2026-04-27 08:26 -8.96559 13.01954 6720 ft 296 kts 247°
2026-04-27 08:27 -8.97336 13.00019 7357 ft 298 kts 247°
2026-04-27 08:27 -8.98121 12.98068 8010 ft 300 kts 247°
2026-04-27 08:27 -8.98910 12.96107 8624 ft 303 kts 247°
2026-04-27 08:27 -8.99708 12.94126 9220 ft 306 kts 247°
2026-04-27 08:28 -9.00515 12.92122 9847 ft 309 kts 247°
2026-04-27 08:28 -9.01331 12.90100 10369 ft 315 kts 247°
2026-04-27 08:28 -9.02188 12.87974 10548 ft 336 kts 247°
2026-04-27 08:28 -9.03097 12.85720 10721 ft 357 kts 247°
2026-04-27 08:29 -9.04064 12.83326 10875 ft 378 kts 247°
2026-04-27 08:29 -9.05081 12.80805 11205 ft 392 kts 247°
2026-04-27 08:29 -9.06125 12.78216 11740 ft 401 kts 247°
2026-04-27 08:29 -9.07184 12.75589 12434 ft 405 kts 248°
2026-04-27 08:30 -9.08251 12.72937 13212 ft 408 kts 248°
2026-04-27 08:30 -9.09323 12.70271 13969 ft 411 kts 248°
2026-04-27 08:30 -9.10406 12.67579 14603 ft 415 kts 248°
2026-04-27 08:30 -9.11485 12.64896 15222 ft 419 kts 248°
2026-04-27 08:31 -9.12588 12.62153 15837 ft 423 kts 248°
2026-04-27 08:31 -9.13705 12.59377 16461 ft 427 kts 248°
2026-04-27 08:31 -9.14830 12.56577 17052 ft 432 kts 248°
2026-04-27 08:31 -9.15965 12.53748 17637 ft 436 kts 249°
2026-04-27 08:32 -9.17112 12.50886 18233 ft 440 kts 249°
2026-04-27 08:32 -9.18268 12.48002 18736 ft 444 kts 249°
2026-04-27 08:32 -9.19434 12.45097 19250 ft 447 kts 248°
2026-04-27 08:32 -9.20609 12.42170 19764 ft 450 kts 248°
2026-04-27 08:33 -9.21793 12.39222 20252 ft 454 kts 248°
2026-04-27 08:33 -9.22987 12.36246 20732 ft 458 kts 248°
2026-04-27 08:33 -9.24175 12.33285 21208 ft 461 kts 248°
2026-04-27 08:33 -9.25387 12.30266 21720 ft 464 kts 248°
2026-04-27 08:34 -9.26605 12.27228 22214 ft 467 kts 248°
2026-04-27 08:34 -9.27833 12.24164 22684 ft 470 kts 248°
2026-04-27 08:34 -9.29069 12.21079 23145 ft 474 kts 248°
2026-04-27 08:34 -9.30309 12.17985 23588 ft 477 kts 248°
2026-04-27 08:35 -9.31559 12.14862 23955 ft 480 kts 248°
2026-04-27 08:35 -9.32819 12.11715 24339 ft 482 kts 248°
2026-04-27 08:35 -9.34082 12.08559 24731 ft 485 kts 248°
2026-04-27 08:35 -9.35348 12.05394 25089 ft 487 kts 248°
2026-04-27 08:36 -9.36624 12.02205 25450 ft 490 kts 248°
2026-04-27 08:36 -9.37906 11.98998 25800 ft 492 kts 248°
2026-04-27 08:36 -9.39195 11.95773 26158 ft 495 kts 248°
2026-04-27 08:36 -9.40489 11.92534 26504 ft 497 kts 248°
2026-04-27 08:37 -9.41789 11.89280 26845 ft 500 kts 248°
2026-04-27 08:37 -9.43116 11.86019 27180 ft 502 kts 248°
2026-04-27 08:37 -9.44456 11.82787 27507 ft 504 kts 247°
2026-04-27 08:37 -9.45825 11.79506 27826 ft 507 kts 247°
2026-04-27 08:38 -9.47204 11.76202 28139 ft 509 kts 247°
2026-04-27 08:38 -9.48583 11.72891 28451 ft 511 kts 247°
2026-04-27 08:38 -9.49962 11.69570 28738 ft 513 kts 247°
2026-04-27 08:38 -9.51346 11.66227 29011 ft 515 kts 247°
2026-04-27 08:39 -9.52736 11.62866 29307 ft 517 kts 247°
2026-04-27 08:39 -9.54125 11.59505 29653 ft 517 kts 247°
2026-04-27 08:39 -9.55513 11.56148 30035 ft 516 kts 247°
2026-04-27 08:39 -9.56895 11.52804 30382 ft 515 kts 247°
2026-04-27 08:40 -9.58277 11.49458 30718 ft 514 kts 247°
2026-04-27 08:40 -9.59659 11.46112 31074 ft 513 kts 248°
2026-04-27 08:40 -9.61035 11.42780 31414 ft 512 kts 248°
2026-04-27 08:40 -9.62406 11.39458 31743 ft 512 kts 248°
2026-04-27 08:41 -9.63784 11.36127 32079 ft 511 kts 247°
2026-04-27 08:41 -9.65164 11.32814 32427 ft 509 kts 247°
2026-04-27 08:41 -9.66523 11.29562 32842 ft 506 kts 247°
2026-04-27 08:41 -9.67914 11.26237 33201 ft 505 kts 247°
2026-04-27 08:42 -9.69265 11.23002 33504 ft 505 kts 247°
2026-04-27 08:42 -9.70634 11.19724 33825 ft 504 kts 247°
2026-04-27 08:42 -9.71999 11.16450 33952 ft 507 kts 247°
2026-04-27 08:42 -9.73373 11.13151 34001 ft 508 kts 247°
2026-04-27 08:43 -9.76111 11.06574 34003 ft 504 kts 247°
2026-04-27 08:43 -9.78825 11.00049 34012 ft 501 kts 247°
2026-04-27 08:44 -9.81525 10.93553 34019 ft 499 kts 247°
2026-04-27 08:44 -9.84224 10.87057 34021 ft 500 kts 247°
2026-04-27 08:45 -9.86927 10.80549 34021 ft 501 kts 247°
2026-04-27 08:45 -9.89637 10.74017 34024 ft 503 kts 247°
2026-04-27 08:46 -9.92355 10.67462 34018 ft 505 kts 247°
2026-04-27 08:46 -9.95080 10.60889 34022 ft 505 kts 247°
2026-04-27 08:47 -9.97793 10.54339 34018 ft 506 kts 247°
2026-04-27 08:47 -10.00519 10.47752 34019 ft 506 kts 247°
2026-04-27 08:48 -10.03245 10.41162 34018 ft 506 kts 248°
2026-04-27 08:48 -10.05968 10.34575 34019 ft 506 kts 248°
2026-04-27 08:49 -10.08688 10.27991 34019 ft 505 kts 248°
2026-04-27 08:49 -10.11402 10.21417 34018 ft 505 kts 248°
2026-04-27 08:50 -10.14111 10.14853 34021 ft 504 kts 248°
2026-04-27 08:50 -10.16794 10.08346 34019 ft 502 kts 248°
2026-04-27 08:51 -10.19490 10.01802 34019 ft 501 kts 248°
2026-04-27 08:51 -10.22178 9.95273 34023 ft 501 kts 248°
2026-04-27 08:52 -10.24866 9.88742 34020 ft 501 kts 248°
2026-04-27 08:52 -10.27553 9.82209 34023 ft 501 kts 249°
2026-04-27 08:53 -10.30219 9.75721 34021 ft 501 kts 248°
2026-04-27 08:53 -10.32902 9.69189 34021 ft 501 kts 249°
2026-04-27 08:54 -10.35586 9.62648 34028 ft 502 kts 249°
2026-04-27 08:54 -10.38285 9.56067 34026 ft 502 kts 249°
2026-04-27 08:55 -10.40951 9.49565 34024 ft 502 kts 249°
2026-04-27 08:55 -10.43632 9.43018 34024 ft 502 kts 249°
2026-04-27 08:56 -10.46313 9.36469 34023 ft 502 kts 249°
2026-04-27 08:56 -10.48996 9.29910 34028 ft 502 kts 249°
2026-04-27 08:57 -10.53017 9.20073 34029 ft 502 kts 249°
2026-04-27 08:58 -10.55679 9.13553 34027 ft 503 kts 249°
2026-04-27 08:58 -10.58358 9.06990 34028 ft 503 kts 249°
2026-04-27 08:59 -10.61034 9.00427 34030 ft 502 kts 249°
2026-04-27 08:59 -10.63710 8.93862 34028 ft 502 kts 249°
2026-04-27 09:00 -10.66384 8.87296 34025 ft 502 kts 249°
2026-04-27 09:00 -10.69060 8.80721 34035 ft 502 kts 249°
2026-04-27 09:01 -10.71728 8.74159 34037 ft 502 kts 249°
2026-04-27 09:01 -10.74380 8.67635 34032 ft 502 kts 249°
2026-04-27 09:02 -10.77050 8.61061 34035 ft 502 kts 249°
2026-04-27 09:02 -10.79714 8.54496 34035 ft 502 kts 249°
2026-04-27 09:03 -10.82379 8.47924 34033 ft 502 kts 249°
2026-04-27 09:03 -10.85037 8.41367 34038 ft 502 kts 249°
2026-04-27 09:04 -10.87695 8.34802 34033 ft 502 kts 249°
2026-04-27 09:04 -10.90338 8.28271 34038 ft 502 kts 249°
2026-04-27 09:05 -10.92996 8.21699 34034 ft 502 kts 249°
2026-04-27 09:05 -10.95654 8.15121 34038 ft 502 kts 249°
2026-04-27 09:06 -10.98310 8.08542 34037 ft 503 kts 249°
2026-04-27 09:06 -11.00968 8.01954 34035 ft 503 kts 249°
2026-04-27 09:07 -11.03605 7.95404 34036 ft 503 kts 249°
2026-04-27 09:07 -11.06253 7.88814 34040 ft 503 kts 249°
2026-04-27 09:08 -11.08900 7.82221 34039 ft 503 kts 249°
2026-04-27 09:08 -11.11550 7.75615 34038 ft 503 kts 249°
2026-04-27 09:09 -11.14196 7.69018 34037 ft 504 kts 250°
2026-04-27 09:09 -11.16844 7.62411 34040 ft 504 kts 250°
2026-04-27 09:10 -11.19489 7.55807 34041 ft 503 kts 250°
2026-04-27 09:10 -11.22130 7.49207 34046 ft 503 kts 249°
2026-04-27 09:11 -11.24768 7.42608 34041 ft 502 kts 249°
2026-04-27 09:11 -11.27403 7.36015 34041 ft 502 kts 249°
2026-04-27 09:12 -11.30034 7.29425 34040 ft 502 kts 250°
2026-04-27 09:12 -11.32651 7.22865 34043 ft 502 kts 250°
2026-04-27 09:13 -11.35278 7.16277 34046 ft 502 kts 250°
2026-04-27 09:13 -11.37904 7.09684 34048 ft 502 kts 250°
2026-04-27 09:14 -11.40533 7.03082 34044 ft 502 kts 250°
2026-04-27 09:14 -11.43143 6.96521 34047 ft 502 kts 250°
2026-04-27 09:15 -11.45767 6.89918 34049 ft 502 kts 250°
2026-04-27 09:15 -11.48390 6.83316 34046 ft 502 kts 250°
2026-04-27 09:16 -11.50569 6.77826 34048 ft 502 kts 250°
2026-04-27 09:16 -11.53201 6.71190 34050 ft 502 kts 250°
2026-04-27 09:17 -11.55803 6.64624 34051 ft 501 kts 250°
2026-04-27 09:17 -11.58415 6.58031 34051 ft 501 kts 250°
2026-04-27 09:18 -11.61024 6.51439 34048 ft 501 kts 250°
2026-04-27 09:18 -11.63633 6.44840 34053 ft 501 kts 250°
2026-04-27 09:19 -11.66236 6.38253 34049 ft 501 kts 250°
2026-04-27 09:19 -11.68840 6.31659 34053 ft 500 kts 250°
2026-04-27 09:20 -11.71435 6.25082 34051 ft 500 kts 250°
2026-04-27 09:20 -11.74016 6.18534 34054 ft 500 kts 250°
2026-04-27 09:21 -11.76611 6.11948 34048 ft 500 kts 250°
2026-04-27 09:21 -11.79207 6.05353 34052 ft 500 kts 250°
2026-04-27 09:22 -11.81799 5.98763 34048 ft 500 kts 250°
2026-04-27 09:22 -11.84390 5.92171 34050 ft 500 kts 250°
2026-04-27 09:23 -11.86980 5.85575 34047 ft 500 kts 250°
2026-04-27 09:23 -11.89552 5.79021 34053 ft 500 kts 250°
2026-04-27 09:24 -11.92137 5.72429 34059 ft 500 kts 250°
2026-04-27 09:24 -11.94722 5.65830 34052 ft 500 kts 250°
2026-04-27 09:25 -11.97304 5.59237 34050 ft 499 kts 250°
2026-04-27 09:25 -11.99878 5.52656 34058 ft 498 kts 250°
2026-04-27 09:26 -12.02443 5.46094 34054 ft 497 kts 250°
2026-04-27 09:26 -12.05000 5.39547 34057 ft 496 kts 251°
2026-04-27 09:27 -12.07542 5.33032 34056 ft 496 kts 250°
2026-04-27 09:27 -12.10097 5.26479 34059 ft 496 kts 250°
2026-04-27 09:28 -12.12652 5.19923 34057 ft 496 kts 250°
2026-04-27 09:28 -12.15205 5.13365 34057 ft 497 kts 250°
2026-04-27 09:29 -12.17757 5.06802 34062 ft 497 kts 250°
2026-04-27 09:29 -12.20310 5.00234 34060 ft 497 kts 250°
2026-04-27 09:30 -12.22882 4.93670 34057 ft 497 kts 250°
2026-04-27 09:30 -12.25468 4.87106 34064 ft 498 kts 250°
2026-04-27 09:31 -12.28040 4.80565 34061 ft 498 kts 250°
2026-04-27 09:31 -12.30621 4.73988 34064 ft 498 kts 250°
2026-04-27 09:32 -12.33200 4.67407 34063 ft 498 kts 250°
2026-04-27 09:32 -12.35778 4.60825 34060 ft 498 kts 250°
2026-04-27 09:33 -12.38354 4.54244 34068 ft 498 kts 250°
2026-04-27 09:33 -12.40924 4.47670 34062 ft 497 kts 250°
2026-04-27 09:34 -12.43475 4.41141 34064 ft 496 kts 250°
2026-04-27 09:34 -12.46035 4.34583 34064 ft 496 kts 250°
2026-04-27 09:35 -12.48575 4.28032 34065 ft 495 kts 251°
2026-04-27 09:35 -12.51102 4.21462 34070 ft 495 kts 251°
2026-04-27 09:36 -12.53623 4.14901 34075 ft 495 kts 250°
2026-04-27 09:36 -12.56142 4.08346 34070 ft 494 kts 251°
2026-04-27 09:37 -12.58659 4.01798 34068 ft 494 kts 251°
2026-04-27 09:37 -12.61172 3.95252 34074 ft 494 kts 251°
2026-04-27 09:38 -12.63669 3.88742 34079 ft 494 kts 250°
2026-04-27 09:38 -12.66175 3.82206 34073 ft 494 kts 250°
2026-04-27 09:39 -12.68683 3.75657 34074 ft 493 kts 251°
2026-04-27 09:39 -12.71182 3.69125 34072 ft 492 kts 250°
2026-04-27 09:40 -12.73676 3.62602 34076 ft 491 kts 251°
2026-04-27 09:40 -12.76162 3.56094 34076 ft 491 kts 251°
2026-04-27 09:41 -12.78649 3.49578 34077 ft 490 kts 251°
2026-04-27 09:41 -12.81134 3.43062 34076 ft 490 kts 251°
2026-04-27 09:42 -12.83599 3.36594 34077 ft 490 kts 251°
2026-04-27 09:42 -12.86078 3.30080 34076 ft 491 kts 251°
2026-04-27 09:43 -12.88558 3.23560 34077 ft 491 kts 251°
2026-04-27 09:43 -12.91037 3.17040 34082 ft 491 kts 251°
2026-04-27 09:44 -12.93520 3.10500 34076 ft 491 kts 251°
2026-04-27 09:44 -12.96000 3.03965 34085 ft 491 kts 251°
2026-04-27 09:45 -12.98472 2.97445 34083 ft 491 kts 251°
2026-04-27 09:45 -13.00928 2.90961 34080 ft 491 kts 251°
2026-04-27 09:46 -13.03397 2.84437 34080 ft 490 kts 251°
2026-04-27 09:46 -13.05860 2.77925 34085 ft 490 kts 251°
2026-04-27 09:47 -13.08325 2.71399 34081 ft 490 kts 251°
2026-04-27 09:47 -13.10783 2.64888 34083 ft 490 kts 251°
2026-04-27 09:48 -13.13244 2.58365 34087 ft 489 kts 251°
2026-04-27 09:48 -13.15703 2.51838 34083 ft 489 kts 251°
2026-04-27 09:49 -13.18136 2.45375 34085 ft 489 kts 251°
2026-04-27 09:49 -13.20583 2.38870 34090 ft 488 kts 251°
2026-04-27 09:50 -13.23029 2.32362 34090 ft 488 kts 251°
2026-04-27 09:50 -13.25471 2.25860 34088 ft 488 kts 251°
2026-04-27 09:51 -13.27911 2.19357 34086 ft 487 kts 251°
2026-04-27 09:51 -13.30346 2.12861 34088 ft 487 kts 251°
2026-04-27 09:52 -13.32757 2.06422 34083 ft 486 kts 251°
2026-04-27 09:52 -13.35182 1.99943 34090 ft 486 kts 251°
2026-04-27 09:53 -13.37604 1.93465 34088 ft 486 kts 251°
2026-04-27 09:53 -13.40027 1.86977 34090 ft 486 kts 251°
2026-04-27 09:54 -13.42446 1.80496 34089 ft 486 kts 251°
2026-04-27 09:54 -13.44862 1.74016 34091 ft 486 kts 251°
2026-04-27 09:55 -13.47279 1.67529 34090 ft 485 kts 251°
2026-04-27 09:55 -13.50881 1.57852 34090 ft 485 kts 251°
2026-04-27 09:56 -13.53292 1.51365 34089 ft 485 kts 252°
2026-04-27 09:56 -13.55699 1.44884 34091 ft 485 kts 252°
2026-04-27 09:57 -13.58105 1.38401 34090 ft 485 kts 252°
2026-04-27 09:57 -13.60509 1.31914 34091 ft 486 kts 252°
2026-04-27 09:58 -13.62913 1.25424 34091 ft 486 kts 252°
2026-04-27 09:58 -13.65317 1.18929 34093 ft 486 kts 252°
2026-04-27 09:59 -13.67716 1.12439 34097 ft 486 kts 252°
2026-04-27 09:59 -13.70119 1.05934 34091 ft 486 kts 252°
2026-04-27 10:00 -13.72504 0.99473 34095 ft 485 kts 252°
2026-04-27 10:00 -13.74897 0.92981 34095 ft 485 kts 252°
2026-04-27 10:01 -13.77288 0.86491 34089 ft 485 kts 252°
2026-04-27 10:01 -13.79679 0.79995 34096 ft 485 kts 252°
2026-04-27 10:02 -13.82068 0.73498 34098 ft 485 kts 252°
2026-04-27 10:02 -13.84452 0.67009 34096 ft 485 kts 252°
2026-04-27 10:03 -13.86817 0.60563 34099 ft 484 kts 252°
2026-04-27 10:03 -13.89196 0.54077 34096 ft 484 kts 252°
2026-04-27 10:04 -13.91571 0.47593 34095 ft 484 kts 252°
2026-04-27 10:04 -13.93944 0.41111 34094 ft 484 kts 252°
2026-04-27 10:05 -13.95917 0.35714 34099 ft 484 kts 252°
2026-04-27 10:05 -13.98286 0.29231 34090 ft 484 kts 252°
2026-04-27 10:06 -14.00653 0.22745 34097 ft 484 kts 252°
2026-04-27 10:06 -14.03405 0.15199 34095 ft 484 kts 252°
2026-04-27 10:07 -14.05386 0.09760 34092 ft 484 kts 252°
2026-04-27 10:07 -14.07748 0.03270 34095 ft 484 kts 252°
2026-04-27 10:08 -14.10110 -0.03221 34099 ft 484 kts 252°
2026-04-27 10:08 -14.12455 -0.09669 34093 ft 484 kts 252°
2026-04-27 10:09 -14.14814 -0.16159 34096 ft 483 kts 252°
2026-04-27 10:09 -14.17169 -0.22649 34097 ft 483 kts 252°
2026-04-27 10:10 -14.19521 -0.29137 34094 ft 483 kts 252°
2026-04-27 10:10 -14.21873 -0.35632 34109 ft 483 kts 252°
2026-04-27 10:11 -14.24219 -0.42114 34100 ft 482 kts 252°
2026-04-27 10:11 -14.26561 -0.48592 34099 ft 482 kts 252°
2026-04-27 10:12 -14.28900 -0.55070 34100 ft 481 kts 252°
2026-04-27 10:12 -14.31218 -0.61493 34098 ft 481 kts 252°
2026-04-27 10:13 -14.33550 -0.67964 34099 ft 481 kts 252°
2026-04-27 10:13 -14.35878 -0.74429 34102 ft 481 kts 252°
2026-04-27 10:14 -14.38204 -0.80895 34106 ft 481 kts 252°
2026-04-27 10:14 -14.40526 -0.87353 34100 ft 480 kts 252°
2026-04-27 10:15 -14.42847 -0.93818 34104 ft 480 kts 252°
2026-04-27 10:15 -14.45165 -1.00278 34103 ft 480 kts 252°
2026-04-27 10:16 -14.47479 -1.06737 34098 ft 480 kts 252°
2026-04-27 10:16 -14.49792 -1.13197 34101 ft 480 kts 252°
2026-04-27 10:17 -14.52103 -1.19658 34107 ft 480 kts 252°
2026-04-27 10:17 -14.54398 -1.26078 34104 ft 480 kts 252°
2026-04-27 10:18 -14.56705 -1.32543 34105 ft 480 kts 252°
2026-04-27 10:18 -14.59014 -1.39015 34098 ft 480 kts 253°
2026-04-27 10:19 -14.61319 -1.45485 34115 ft 479 kts 253°
2026-04-27 10:19 -14.63618 -1.51944 34115 ft 479 kts 253°
2026-04-27 10:20 -14.65915 -1.58403 34106 ft 479 kts 253°
2026-04-27 10:20 -14.68212 -1.64871 34102 ft 479 kts 253°
2026-04-27 10:21 -14.70504 -1.71328 34121 ft 479 kts 253°
2026-04-27 10:21 -14.72797 -1.77796 34106 ft 479 kts 253°
2026-04-27 10:22 -14.75074 -1.84225 34103 ft 480 kts 253°
2026-04-27 10:22 -14.77368 -1.90707 34106 ft 480 kts 253°
2026-04-27 10:23 -14.79658 -1.97186 34111 ft 480 kts 253°
2026-04-27 10:23 -14.81949 -2.03674 34113 ft 480 kts 253°
2026-04-27 10:24 -14.84235 -2.10154 34111 ft 480 kts 253°
2026-04-27 10:24 -14.86519 -2.16635 34110 ft 480 kts 253°
2026-04-27 10:25 -14.88804 -2.23123 34114 ft 480 kts 253°
2026-04-27 10:25 -14.91068 -2.29562 34113 ft 479 kts 253°
2026-04-27 10:26 -14.93346 -2.36043 34121 ft 478 kts 253°
2026-04-27 10:26 -14.95614 -2.42503 34111 ft 477 kts 253°
2026-04-27 10:27 -14.97874 -2.48948 34110 ft 476 kts 253°
2026-04-27 10:27 -15.00126 -2.55379 34109 ft 475 kts 253°
2026-04-27 10:28 -15.02374 -2.61802 34108 ft 474 kts 253°
2026-04-27 10:28 -15.04605 -2.68184 34117 ft 474 kts 254°
2026-04-27 10:29 -15.06847 -2.74603 34112 ft 474 kts 254°
2026-04-27 10:29 -15.09081 -2.81009 34109 ft 474 kts 254°
2026-04-27 10:30 -15.11317 -2.87425 34111 ft 474 kts 254°
2026-04-27 10:30 -15.13552 -2.93843 34112 ft 474 kts 254°
2026-04-27 10:31 -15.15786 -3.00266 34112 ft 474 kts 254°
2026-04-27 10:31 -15.18019 -3.06694 34113 ft 475 kts 254°
2026-04-27 10:32 -15.20253 -3.13130 34116 ft 475 kts 254°
2026-04-27 10:32 -15.22487 -3.19573 34115 ft 475 kts 254°
2026-04-27 10:33 -15.24723 -3.26028 34115 ft 476 kts 254°
2026-04-27 10:33 -15.26941 -3.32436 34116 ft 476 kts 254°
2026-04-27 10:34 -15.29174 -3.38896 34114 ft 476 kts 254°
2026-04-27 10:34 -15.31402 -3.45349 34117 ft 476 kts 254°
2026-04-27 10:35 -15.33626 -3.51796 34113 ft 476 kts 254°
2026-04-27 10:35 -15.35849 -3.58249 34114 ft 475 kts 254°
2026-04-27 10:36 -15.38070 -3.64699 34115 ft 475 kts 255°
2026-04-27 10:36 -15.40289 -3.71155 34177 ft 477 kts 255°
2026-04-27 10:37 -15.41405 -3.74405 34437 ft 477 kts 254°
2026-04-27 10:37 -15.42515 -3.77634 34811 ft 474 kts 254°
2026-04-27 10:37 -15.43617 -3.80840 35199 ft 470 kts 254°
2026-04-27 10:37 -15.44710 -3.84024 35581 ft 467 kts 254°
2026-04-27 10:38 -15.45796 -3.87187 35940 ft 465 kts 254°
2026-04-27 10:38 -15.46879 -3.90349 36049 ft 467 kts 254°
2026-04-27 10:38 -15.49052 -3.96705 36098 ft 467 kts 254°
2026-04-27 10:39 -15.51202 -4.02986 36120 ft 464 kts 254°
2026-04-27 10:39 -15.53353 -4.09281 36117 ft 462 kts 254°
2026-04-27 10:40 -15.55495 -4.15558 36114 ft 461 kts 255°
2026-04-27 10:40 -15.57631 -4.21824 36114 ft 461 kts 255°
2026-04-27 10:41 -15.59769 -4.28102 36119 ft 462 kts 255°
2026-04-27 10:41 -15.61912 -4.34398 36117 ft 463 kts 255°
2026-04-27 10:42 -15.64045 -4.40672 36120 ft 464 kts 255°
2026-04-27 10:42 -15.66188 -4.46984 36131 ft 464 kts 255°
2026-04-27 10:43 -15.68335 -4.53312 36131 ft 465 kts 255°
2026-04-27 10:43 -15.70482 -4.59648 36116 ft 465 kts 255°
2026-04-27 10:44 -15.72626 -4.65982 36119 ft 465 kts 255°
2026-04-27 10:44 -15.74766 -4.72311 36118 ft 464 kts 255°
2026-04-27 10:45 -15.76900 -4.78627 36123 ft 464 kts 255°
2026-04-27 10:45 -15.79032 -4.84945 36124 ft 463 kts 255°
2026-04-27 10:46 -15.81162 -4.91268 36117 ft 463 kts 255°
2026-04-27 10:46 -15.83285 -4.97574 36129 ft 463 kts 255°
2026-04-27 10:47 -15.85416 -5.03885 36122 ft 463 kts 255°
2026-04-27 10:47 -15.87563 -5.10187 36125 ft 463 kts 255°
2026-04-27 10:48 -15.89712 -5.16496 36125 ft 463 kts 255°
2026-04-27 10:48 -15.91853 -5.22799 36125 ft 462 kts 255°
2026-04-27 10:49 -15.93991 -5.29101 36134 ft 462 kts 255°
2026-04-27 10:49 -15.96110 -5.35360 36133 ft 462 kts 255°
2026-04-27 10:50 -15.98245 -5.41668 36126 ft 461 kts 255°
2026-04-27 10:50 -16.00369 -5.47952 36126 ft 460 kts 255°
2026-04-27 10:51 -16.02487 -5.54226 36128 ft 459 kts 256°
2026-04-27 10:51 -16.04600 -5.60492 36127 ft 459 kts 256°
2026-04-27 10:52 -16.06352 -5.65692 36126 ft 459 kts 256°
2026-04-27 10:52 -16.08459 -5.71953 36127 ft 459 kts 256°
2026-04-27 10:53 -16.11619 -5.81353 36127 ft 459 kts 256°
2026-04-27 10:54 -16.13721 -5.87616 36128 ft 459 kts 256°
2026-04-27 10:54 -16.15822 -5.93883 36128 ft 459 kts 256°
2026-04-27 10:55 -16.17922 -6.00152 36128 ft 459 kts 256°
2026-04-27 10:55 -16.20008 -6.06385 36124 ft 459 kts 256°
2026-04-27 10:56 -16.22106 -6.12663 36131 ft 459 kts 256°
2026-04-27 10:56 -16.24203 -6.18942 36125 ft 459 kts 256°
2026-04-27 10:57 -16.26299 -6.25228 36145 ft 459 kts 256°
2026-04-27 10:57 -16.28394 -6.31516 36135 ft 459 kts 256°
2026-04-27 10:58 -16.30485 -6.37801 36129 ft 459 kts 256°
2026-04-27 10:58 -16.32561 -6.44044 36125 ft 459 kts 256°
2026-04-27 10:59 -16.34644 -6.50319 36132 ft 458 kts 256°
2026-04-27 10:59 -16.36725 -6.56594 36128 ft 458 kts 256°
2026-04-27 11:00 -16.39842 -6.66004 36127 ft 458 kts 256°
2026-04-27 11:00 -16.41921 -6.72288 36133 ft 458 kts 256°
2026-04-27 11:01 -16.43998 -6.78577 36131 ft 459 kts 256°
2026-04-27 11:01 -16.46073 -6.84864 36141 ft 459 kts 256°
2026-04-27 11:02 -16.48146 -6.91153 36127 ft 460 kts 256°
2026-04-27 11:02 -16.50209 -6.97418 36134 ft 459 kts 256°
2026-04-27 11:03 -16.52283 -7.03723 36133 ft 459 kts 256°
2026-04-27 11:03 -16.54355 -7.10030 36132 ft 459 kts 256°
2026-04-27 11:04 -16.56422 -7.16328 36132 ft 459 kts 256°
2026-04-27 11:04 -16.58489 -7.22633 36153 ft 459 kts 256°
2026-04-27 11:05 -16.60538 -7.28891 36127 ft 459 kts 256°
2026-04-27 11:05 -16.62600 -7.35195 36135 ft 458 kts 256°
2026-04-27 11:06 -16.64654 -7.41484 36137 ft 458 kts 256°
2026-04-27 11:06 -16.66707 -7.47774 36126 ft 458 kts 256°
2026-04-27 11:07 -16.68759 -7.54069 36125 ft 458 kts 256°
2026-04-27 11:07 -16.70806 -7.60358 36143 ft 458 kts 256°
2026-04-27 11:08 -16.72851 -7.66648 36136 ft 458 kts 256°
2026-04-27 11:08 -16.74894 -7.72936 36132 ft 458 kts 256°
2026-04-27 11:09 -16.76938 -7.79238 36134 ft 458 kts 256°
2026-04-27 11:09 -16.78965 -7.85490 36133 ft 458 kts 256°
2026-04-27 11:10 -16.81006 -7.91797 36146 ft 458 kts 256°
2026-04-27 11:10 -16.83044 -7.98099 36147 ft 458 kts 256°
2026-04-27 11:11 -16.85079 -8.04403 36134 ft 458 kts 256°
2026-04-27 11:11 -16.87104 -8.10681 36132 ft 458 kts 256°
2026-04-27 11:12 -16.89137 -8.16989 36160 ft 458 kts 257°
2026-04-27 11:12 -16.91130 -8.23305 36139 ft 457 kts 257°
2026-04-27 11:13 -16.93084 -8.29628 36136 ft 456 kts 257°
2026-04-27 11:13 -16.95031 -8.35933 36146 ft 456 kts 257°
2026-04-27 11:14 -16.96981 -8.42232 36138 ft 455 kts 257°
2026-04-27 11:14 -16.98925 -8.48515 36138 ft 454 kts 257°
2026-04-27 11:15 -17.00849 -8.54739 36139 ft 453 kts 257°
2026-04-27 11:15 -17.02787 -8.61014 36141 ft 453 kts 257°
2026-04-27 11:16 -17.04719 -8.67281 36139 ft 453 kts 257°
2026-04-27 11:16 -17.06651 -8.73551 36146 ft 453 kts 257°
2026-04-27 11:17 -17.08583 -8.79832 36139 ft 453 kts 257°
2026-04-27 11:17 -17.10511 -8.86107 36139 ft 453 kts 257°
2026-04-27 11:18 -17.12438 -8.92386 36141 ft 453 kts 257°
2026-04-27 11:18 -17.14353 -8.98632 36142 ft 453 kts 257°
2026-04-27 11:19 -17.16276 -9.04915 36144 ft 454 kts 257°
2026-04-27 11:19 -17.18198 -9.11200 36149 ft 454 kts 257°
2026-04-27 11:20 -17.20119 -9.17489 36147 ft 454 kts 257°
2026-04-27 11:20 -17.22041 -9.23787 36144 ft 454 kts 257°
2026-04-27 11:21 -17.23956 -9.30073 36144 ft 453 kts 257°
2026-04-27 11:21 -17.25856 -9.36317 36147 ft 453 kts 257°
2026-04-27 11:22 -17.27766 -9.42602 36146 ft 452 kts 257°
2026-04-27 11:22 -17.29669 -9.48870 36150 ft 452 kts 257°
2026-04-27 11:23 -17.31572 -9.55147 36141 ft 452 kts 257°
2026-04-27 11:23 -17.33473 -9.61425 36142 ft 452 kts 257°
2026-04-27 11:24 -17.35372 -9.67706 36145 ft 453 kts 257°
2026-04-27 11:24 -17.37273 -9.73999 36145 ft 453 kts 257°
2026-04-27 11:25 -17.39170 -9.80288 36147 ft 453 kts 257°
2026-04-27 11:25 -17.41068 -9.86586 36150 ft 453 kts 257°
2026-04-27 11:26 -17.42962 -9.92883 36148 ft 453 kts 257°
2026-04-27 11:26 -17.44844 -9.99142 36144 ft 453 kts 257°
2026-04-27 11:27 -17.46599 -10.05473 36144 ft 452 kts 259°
2026-04-27 11:27 -17.48177 -10.11841 36145 ft 452 kts 260°
2026-04-27 11:28 -17.49752 -10.18212 36152 ft 452 kts 260°
2026-04-27 11:28 -17.51353 -10.24587 36154 ft 452 kts 259°
2026-04-27 11:29 -17.52954 -10.30912 36142 ft 451 kts 259°
2026-04-27 11:29 -17.54566 -10.37276 36146 ft 450 kts 259°
2026-04-27 11:30 -17.56171 -10.43622 36147 ft 450 kts 259°
2026-04-27 11:30 -17.57768 -10.49954 36146 ft 449 kts 259°
2026-04-27 11:31 -17.59362 -10.56282 36145 ft 449 kts 260°
2026-04-27 11:31 -17.60952 -10.62603 36140 ft 449 kts 259°
2026-04-27 11:32 -17.62534 -10.68900 36148 ft 449 kts 259°
2026-04-27 11:32 -17.64123 -10.75236 36145 ft 449 kts 259°
2026-04-27 11:33 -17.65711 -10.81578 36147 ft 450 kts 259°
2026-04-27 11:33 -17.67301 -10.87934 36144 ft 450 kts 259°
2026-04-27 11:34 -17.68889 -10.94290 36143 ft 450 kts 259°
2026-04-27 11:34 -17.70463 -11.00603 36146 ft 450 kts 259°
2026-04-27 11:35 -17.72044 -11.06953 36149 ft 450 kts 259°
2026-04-27 11:35 -17.73624 -11.13304 36146 ft 450 kts 259°
2026-04-27 11:36 -17.75200 -11.19652 36149 ft 449 kts 259°
2026-04-27 11:36 -17.76773 -11.25998 36176 ft 449 kts 259°
2026-04-27 11:37 -17.78343 -11.32342 36150 ft 449 kts 259°
2026-04-27 11:37 -17.79913 -11.38692 36140 ft 449 kts 259°
2026-04-27 11:38 -17.81477 -11.45027 36141 ft 448 kts 259°
2026-04-27 11:38 -17.83026 -11.51313 36147 ft 448 kts 259°
2026-04-27 11:39 -17.84584 -11.57644 36143 ft 447 kts 259°
2026-04-27 11:39 -17.86138 -11.63967 36144 ft 447 kts 259°
2026-04-27 11:40 -17.87690 -11.70293 36146 ft 447 kts 259°
2026-04-27 11:40 -17.89231 -11.76581 36144 ft 447 kts 259°
2026-04-27 11:41 -17.90781 -11.82918 36143 ft 448 kts 259°
2026-04-27 11:41 -17.92328 -11.89253 36142 ft 448 kts 259°
2026-04-27 11:42 -17.93875 -11.95596 36144 ft 448 kts 259°
2026-04-27 11:42 -17.95160 -12.00870 36145 ft 448 kts 259°
2026-04-27 11:43 -17.96703 -12.07213 36150 ft 448 kts 259°
2026-04-27 11:43 -17.98246 -12.13566 36143 ft 449 kts 259°
2026-04-27 11:44 -17.99784 -12.19910 36145 ft 448 kts 259°
2026-04-27 11:44 -18.01322 -12.26261 36145 ft 448 kts 259°
2026-04-27 11:45 -18.02856 -12.32606 36140 ft 448 kts 259°
2026-04-27 11:45 -18.04388 -12.38953 36163 ft 448 kts 259°
2026-04-27 11:46 -18.05917 -12.45296 36139 ft 448 kts 259°
2026-04-27 11:46 -18.07447 -12.51652 36142 ft 448 kts 259°
2026-04-27 11:47 -18.08961 -12.57955 36143 ft 447 kts 259°
2026-04-27 11:47 -18.10483 -12.64297 36141 ft 447 kts 259°
2026-04-27 11:48 -18.12004 -12.70645 36141 ft 447 kts 259°
2026-04-27 11:48 -18.13519 -12.76982 36145 ft 447 kts 259°
2026-04-27 11:49 -18.15034 -12.83326 36142 ft 447 kts 259°
2026-04-27 11:49 -18.16547 -12.89669 36141 ft 447 kts 259°
2026-04-27 11:50 -18.18057 -12.96011 36139 ft 447 kts 259°
2026-04-27 11:50 -18.19563 -13.02347 36139 ft 447 kts 259°
2026-04-27 11:51 -18.21059 -13.08650 36137 ft 447 kts 259°
2026-04-27 11:52 -18.23311 -13.18158 36143 ft 446 kts 258°
2026-04-27 11:52 -18.24812 -13.24506 36147 ft 446 kts 258°
2026-04-27 11:53 -18.26299 -13.30808 36144 ft 446 kts 258°
2026-04-27 11:53 -18.27801 -13.37178 36136 ft 446 kts 258°
2026-04-27 11:54 -18.29291 -13.43512 36139 ft 446 kts 258°
2026-04-27 11:54 -18.30770 -13.49806 36140 ft 446 kts 258°
2026-04-27 11:55 -18.32256 -13.56142 36146 ft 446 kts 258°
2026-04-27 11:55 -18.33738 -13.62470 36144 ft 446 kts 258°
2026-04-27 11:56 -18.35220 -13.68809 36148 ft 446 kts 258°
2026-04-27 11:56 -18.36700 -13.75148 36143 ft 446 kts 258°
2026-04-27 11:57 -18.38178 -13.81490 36139 ft 446 kts 258°
2026-04-27 11:57 -18.39655 -13.87836 36146 ft 446 kts 258°
2026-04-27 11:58 -18.41120 -13.94140 36140 ft 446 kts 258°
2026-04-27 11:58 -18.42590 -14.00479 36146 ft 446 kts 258°
2026-04-27 11:59 -18.44062 -14.06832 36143 ft 446 kts 258°
2026-04-27 11:59 -18.45532 -14.13191 36146 ft 446 kts 258°
2026-04-27 12:00 -18.46998 -14.19541 36145 ft 446 kts 258°
2026-04-27 12:00 -18.48453 -14.25855 36145 ft 446 kts 257°
2026-04-27 12:01 -18.49914 -14.32201 36144 ft 446 kts 257°
2026-04-27 12:01 -18.51374 -14.38557 36149 ft 446 kts 257°
2026-04-27 12:02 -18.52833 -14.44919 36148 ft 446 kts 257°
2026-04-27 12:02 -18.54290 -14.51282 36142 ft 446 kts 257°
2026-04-27 12:03 -18.55745 -14.57647 36151 ft 447 kts 257°
2026-04-27 12:03 -18.57201 -14.64026 36150 ft 448 kts 257°
2026-04-27 12:04 -18.58647 -14.70372 36142 ft 448 kts 257°
2026-04-27 12:04 -18.60101 -14.76762 36142 ft 448 kts 257°
2026-04-27 12:05 -18.61553 -14.83153 36147 ft 448 kts 257°
2026-04-27 12:05 -18.63005 -14.89556 36144 ft 448 kts 257°
2026-04-27 12:06 -18.64451 -14.95947 36129 ft 448 kts 256°
2026-04-27 12:06 -18.65898 -15.02351 36141 ft 448 kts 256°
2026-04-27 12:07 -18.67331 -15.08700 36146 ft 448 kts 256°
2026-04-27 12:07 -18.68773 -15.15102 36144 ft 449 kts 256°
2026-04-27 12:08 -18.70215 -15.21512 36140 ft 449 kts 256°
2026-04-27 12:08 -18.71653 -15.27921 36139 ft 449 kts 256°
2026-04-27 12:09 -18.73090 -15.34333 36143 ft 449 kts 256°
2026-04-27 12:09 -18.74524 -15.40742 36147 ft 449 kts 256°
2026-04-27 12:10 -18.75957 -15.47158 36147 ft 449 kts 256°
2026-04-27 12:10 -18.77386 -15.53566 36147 ft 449 kts 256°
2026-04-27 12:11 -18.78806 -15.59947 36152 ft 449 kts 256°
2026-04-27 12:11 -18.80232 -15.66366 36145 ft 450 kts 255°
2026-04-27 12:12 -18.81660 -15.72801 36148 ft 451 kts 255°
2026-04-27 12:12 -18.83092 -15.79269 36146 ft 452 kts 255°
2026-04-27 12:13 -18.84512 -15.85746 36151 ft 453 kts 255°
2026-04-27 12:13 -18.85928 -15.92238 36150 ft 454 kts 255°
2026-04-27 12:14 -18.87344 -15.98730 36146 ft 454 kts 255°
2026-04-27 12:14 -18.88759 -16.05234 36137 ft 454 kts 255°
2026-04-27 12:15 -18.90169 -16.11716 36148 ft 453 kts 255°
2026-04-27 12:15 -18.91569 -16.18164 36151 ft 453 kts 255°
2026-04-27 12:16 -18.92973 -16.24645 36145 ft 452 kts 255°
2026-04-27 12:16 -18.94374 -16.31122 36147 ft 452 kts 255°
2026-04-27 12:17 -18.95771 -16.37591 36137 ft 452 kts 253°
2026-04-27 12:17 -18.97164 -16.44055 36150 ft 451 kts 253°
2026-04-27 12:18 -18.98555 -16.50523 36148 ft 451 kts 253°
2026-04-27 12:18 -18.99944 -16.56991 36144 ft 451 kts 253°
2026-04-27 12:19 -19.01332 -16.63460 36151 ft 451 kts 253°
2026-04-27 12:19 -19.02716 -16.69933 36166 ft 451 kts 253°
2026-04-27 12:20 -19.04098 -16.76408 36152 ft 451 kts 252°
2026-04-27 12:20 -19.05479 -16.82877 36148 ft 451 kts 252°
2026-04-27 12:21 -19.06848 -16.89305 36148 ft 451 kts 252°
2026-04-27 12:21 -19.08221 -16.95772 36145 ft 451 kts 252°
2026-04-27 12:22 -19.09593 -17.02239 36150 ft 451 kts 252°
2026-04-27 12:22 -19.10962 -17.08709 36144 ft 450 kts 251°
2026-04-27 12:23 -19.12327 -17.15169 36144 ft 450 kts 251°
2026-04-27 12:23 -19.13688 -17.21623 36144 ft 449 kts 251°
2026-04-27 12:24 -19.15048 -17.28081 36143 ft 449 kts 251°
2026-04-27 12:24 -19.16401 -17.34519 36156 ft 449 kts 251°
2026-04-27 12:25 -19.17753 -17.40966 36131 ft 448 kts 250°
2026-04-27 12:25 -19.19093 -17.47366 36146 ft 448 kts 250°
2026-04-27 12:26 -19.20437 -17.53794 36145 ft 447 kts 250°
2026-04-27 12:26 -19.21781 -17.60234 36152 ft 447 kts 250°
2026-04-27 12:27 -19.23119 -17.66661 36149 ft 447 kts 250°
2026-04-27 12:27 -19.24448 -17.73054 36149 ft 447 kts 250°
2026-04-27 12:28 -19.25783 -17.79487 36154 ft 447 kts 249°
2026-04-27 12:28 -19.27116 -17.85922 36148 ft 448 kts 250°
2026-04-27 12:29 -19.28447 -17.92360 36149 ft 448 kts 250°
2026-04-27 12:29 -19.29776 -17.98803 36151 ft 448 kts 250°
2026-04-27 12:30 -19.31103 -18.05248 36150 ft 448 kts 250°
2026-04-27 12:30 -19.32428 -18.11694 36137 ft 448 kts 249°
2026-04-27 12:31 -19.33751 -18.18140 36143 ft 448 kts 249°
2026-04-27 12:31 -19.35063 -18.24545 36140 ft 448 kts 250°
2026-04-27 12:32 -19.36383 -18.31001 36149 ft 448 kts 250°
2026-04-27 12:32 -19.37700 -18.37456 36150 ft 449 kts 250°
2026-04-27 12:33 -19.39017 -18.43923 36145 ft 449 kts 250°
2026-04-27 12:33 -19.40110 -18.49304 36145 ft 449 kts 250°
2026-04-27 12:34 -19.41645 -18.56866 36151 ft 449 kts 250°
2026-04-27 12:34 -19.42735 -18.62250 36150 ft 450 kts 250°
2026-04-27 12:35 -19.44045 -18.68732 36147 ft 450 kts 250°
2026-04-27 12:35 -19.45352 -18.75210 36147 ft 450 kts 250°
2026-04-27 12:36 -19.46659 -18.81700 36162 ft 450 kts 250°
2026-04-27 12:36 -19.47966 -18.88203 36149 ft 451 kts 250°
2026-04-27 12:37 -19.49269 -18.94699 36148 ft 450 kts 250°
2026-04-27 12:37 -19.50569 -19.01193 36150 ft 450 kts 250°
2026-04-27 12:38 -19.51867 -19.07686 36152 ft 450 kts 250°
2026-04-27 12:38 -19.53160 -19.14169 36132 ft 450 kts 250°
2026-04-27 12:39 -19.54441 -19.20609 36148 ft 449 kts 250°
2026-04-27 12:39 -19.55730 -19.27095 36150 ft 449 kts 250°
2026-04-27 12:40 -19.57017 -19.33583 36147 ft 449 kts 250°
2026-04-27 12:40 -19.58301 -19.40073 36148 ft 450 kts 250°
2026-04-27 12:41 -19.59584 -19.46568 36128 ft 450 kts 250°
2026-04-27 12:41 -19.60865 -19.53067 36142 ft 450 kts 250°
2026-04-27 12:42 -19.62142 -19.59559 36147 ft 450 kts 250°
2026-04-27 12:42 -19.63419 -19.66064 36145 ft 450 kts 250°
2026-04-27 12:43 -19.64696 -19.72581 36148 ft 451 kts 250°
2026-04-27 12:43 -19.65970 -19.79096 36150 ft 451 kts 250°
2026-04-27 12:44 -19.67240 -19.85608 36161 ft 451 kts 250°
2026-04-27 12:44 -19.68502 -19.92085 36147 ft 451 kts 251°
2026-04-27 12:45 -19.69771 -19.98613 36144 ft 451 kts 251°
2026-04-27 12:45 -19.71035 -20.05133 36148 ft 451 kts 251°
2026-04-27 12:46 -19.72296 -20.11644 36149 ft 451 kts 251°
2026-04-27 12:46 -19.73556 -20.18169 36142 ft 450 kts 251°
2026-04-27 12:47 -19.74814 -20.24693 36146 ft 451 kts 251°
2026-04-27 12:47 -19.76061 -20.31171 36147 ft 451 kts 251°
2026-04-27 12:48 -19.77315 -20.37700 36145 ft 451 kts 251°
2026-04-27 12:48 -19.78567 -20.44234 36144 ft 452 kts 251°
2026-04-27 12:49 -19.79818 -20.50775 36140 ft 452 kts 251°
2026-04-27 12:49 -19.81065 -20.57314 36148 ft 452 kts 251°
2026-04-27 12:50 -19.82312 -20.63863 36145 ft 452 kts 251°
2026-04-27 12:50 -19.83557 -20.70416 36147 ft 453 kts 251°
2026-04-27 12:51 -19.84801 -20.76970 36148 ft 453 kts 252°
2026-04-27 12:51 -19.86064 -20.83522 36134 ft 452 kts 252°
2026-04-27 12:52 -19.87336 -20.90031 36149 ft 452 kts 251°
2026-04-27 12:52 -19.88619 -20.96611 36147 ft 452 kts 251°
2026-04-27 12:53 -19.90515 -21.06387 36147 ft 452 kts 251°
2026-04-27 12:53 -19.91777 -21.12921 36147 ft 452 kts 251°
2026-04-27 12:54 -19.93038 -21.19461 36141 ft 451 kts 252°
2026-04-27 12:54 -19.94297 -21.26002 36137 ft 451 kts 252°
2026-04-27 12:55 -19.95553 -21.32543 36151 ft 452 kts 252°
2026-04-27 12:55 -19.96808 -21.39091 36154 ft 452 kts 252°
2026-04-27 12:56 -19.98060 -21.45635 36150 ft 452 kts 252°
2026-04-27 12:56 -19.99303 -21.52146 36142 ft 452 kts 252°
2026-04-27 12:57 -20.00551 -21.58702 36149 ft 452 kts 252°
2026-04-27 12:57 -20.01797 -21.65258 36143 ft 453 kts 252°
2026-04-27 12:58 -20.03045 -21.71834 36140 ft 453 kts 252°
2026-04-27 12:58 -20.04288 -21.78403 36143 ft 453 kts 252°
2026-04-27 12:59 -20.05530 -21.84980 36138 ft 453 kts 253°
2026-04-27 12:59 -20.06768 -21.91552 36146 ft 454 kts 253°
2026-04-27 13:00 -20.08009 -21.98145 36147 ft 453 kts 253°
2026-04-27 13:00 -20.09243 -22.04724 36139 ft 453 kts 253°
2026-04-27 13:01 -20.10476 -22.11307 36148 ft 453 kts 253°
2026-04-27 13:01 -20.11696 -22.17837 36150 ft 453 kts 253°
2026-04-27 13:02 -20.12925 -22.24431 36143 ft 453 kts 253°
2026-04-27 13:02 -20.14149 -22.31005 36146 ft 453 kts 253°
2026-04-27 13:03 -20.15372 -22.37593 36139 ft 453 kts 253°
2026-04-27 13:03 -20.16590 -22.44168 36143 ft 453 kts 253°
2026-04-27 13:04 -20.17806 -22.50745 36129 ft 453 kts 253°
2026-04-27 13:04 -20.19013 -22.57288 36138 ft 453 kts 253°
2026-04-27 13:05 -20.20225 -22.63873 36143 ft 453 kts 253°
2026-04-27 13:05 -20.21435 -22.70460 36145 ft 453 kts 253°
2026-04-27 13:06 -20.22643 -22.77052 36140 ft 453 kts 253°
2026-04-27 13:06 -20.23850 -22.83649 36144 ft 454 kts 253°
2026-04-27 13:07 -20.25053 -22.90247 36141 ft 454 kts 253°
2026-04-27 13:07 -20.26256 -22.96853 36142 ft 454 kts 253°
2026-04-27 13:08 -20.27447 -23.03413 36144 ft 454 kts 253°
2026-04-27 13:08 -20.28644 -23.10017 36142 ft 454 kts 253°
2026-04-27 13:09 -20.29839 -23.16624 36140 ft 454 kts 254°
2026-04-27 13:09 -20.31032 -23.23237 36139 ft 454 kts 254°
2026-04-27 13:10 -20.32222 -23.29846 36140 ft 454 kts 254°
2026-04-27 13:10 -20.33402 -23.36415 36140 ft 454 kts 254°
2026-04-27 13:11 -20.34588 -23.43029 36126 ft 454 kts 254°
2026-04-27 13:11 -20.35772 -23.49649 36130 ft 454 kts 254°
2026-04-27 13:12 -20.36953 -23.56269 36137 ft 455 kts 254°
2026-04-27 13:12 -20.38133 -23.62894 36136 ft 455 kts 254°
2026-04-27 13:13 -20.39310 -23.69526 36134 ft 455 kts 254°
2026-04-27 13:13 -20.40486 -23.76160 36124 ft 455 kts 255°
2026-04-27 13:14 -20.41659 -23.82790 36133 ft 456 kts 255°
2026-04-27 13:14 -20.42824 -23.89395 36130 ft 456 kts 255°
2026-04-27 13:15 -20.44000 -23.96079 36134 ft 456 kts 255°
2026-04-27 13:15 -20.45161 -24.02693 36136 ft 456 kts 255°
2026-04-27 13:16 -20.46326 -24.09339 36124 ft 456 kts 255°
2026-04-27 13:16 -20.47490 -24.16003 36131 ft 456 kts 255°
2026-04-27 13:17 -20.48652 -24.22662 36134 ft 457 kts 255°
2026-04-27 13:17 -20.49810 -24.29318 36130 ft 457 kts 255°
2026-04-27 13:18 -20.50967 -24.35987 36130 ft 457 kts 255°
2026-04-27 13:18 -20.52122 -24.42659 36125 ft 457 kts 255°
2026-04-27 13:19 -20.53267 -24.49286 36135 ft 457 kts 255°
2026-04-27 13:19 -20.54423 -24.55996 36130 ft 457 kts 255°
2026-04-27 13:20 -20.55563 -24.62625 36131 ft 457 kts 255°
2026-04-27 13:20 -20.56708 -24.69302 36131 ft 457 kts 255°
2026-04-27 13:21 -20.57851 -24.75979 36134 ft 457 kts 255°
2026-04-27 13:21 -20.58990 -24.82656 36127 ft 457 kts 255°
2026-04-27 13:22 -20.59936 -24.88210 36129 ft 457 kts 256°
2026-04-27 13:22 -20.61256 -24.95977 36129 ft 457 kts 256°
2026-04-27 13:23 -20.62387 -25.02647 36118 ft 456 kts 256°
2026-04-27 13:23 -20.63332 -25.08233 36126 ft 456 kts 256°
2026-04-27 13:24 -20.64457 -25.14906 36127 ft 457 kts 256°
2026-04-27 13:24 -20.65575 -25.21547 36121 ft 457 kts 256°
2026-04-27 13:25 -20.66698 -25.28232 36134 ft 457 kts 256°
2026-04-27 13:25 -20.67818 -25.34921 36139 ft 458 kts 256°
2026-04-27 13:26 -20.68938 -25.41622 36137 ft 458 kts 256°
2026-04-27 13:26 -20.70055 -25.48327 36126 ft 458 kts 256°
2026-04-27 13:27 -20.71160 -25.54976 36122 ft 458 kts 256°
2026-04-27 13:27 -20.72273 -25.61684 36129 ft 458 kts 256°
2026-04-27 13:28 -20.73382 -25.68385 36127 ft 458 kts 256°
2026-04-27 13:28 -20.74515 -25.75078 36114 ft 458 kts 256°
2026-04-27 13:29 -20.75664 -25.81758 36135 ft 457 kts 256°
2026-04-27 13:29 -20.76811 -25.88447 36133 ft 457 kts 256°
2026-04-27 13:30 -20.77943 -25.95084 36115 ft 457 kts 256°
2026-04-27 13:30 -20.79077 -26.01765 36130 ft 457 kts 256°
2026-04-27 13:31 -20.80208 -26.08439 36122 ft 457 kts 256°
2026-04-27 13:31 -20.81338 -26.15128 36125 ft 457 kts 256°
2026-04-27 13:32 -20.82466 -26.21822 36121 ft 457 kts 256°
2026-04-27 13:32 -20.83593 -26.28524 36120 ft 457 kts 256°
2026-04-27 13:33 -20.84709 -26.35178 36124 ft 458 kts 256°
2026-04-27 13:33 -20.85831 -26.41881 36123 ft 458 kts 256°
2026-04-27 13:34 -20.86951 -26.48592 36124 ft 459 kts 256°
2026-04-27 13:34 -20.88069 -26.55309 36118 ft 459 kts 256°
2026-04-27 13:35 -20.89185 -26.62029 36134 ft 458 kts 256°
2026-04-27 13:35 -20.90297 -26.68744 36118 ft 458 kts 256°